Flag for Cambodia Weather past 2 weeks in Battambang, Cambodia

Now
79 °F

Partly cloudy.


Feels Like: 82 °F
Forecast: 76 / 90 °F
Wind: 2 mph from Southwest

Location: Siemreap

Current Time: Jul 24, 2014 at 3:22:40 AM

Latest Report: Jul 24, 2014 at 1:00 AM


Visibility: 6 mi

Pressure: 29.68 "Hg

Humidity: 89%

Dew point: 75 °F

Location of BattambangLocation

Historic Weather in Battambang — Graph

°F

Battambang temperature yesterday

Maximum temperature yesterday: 86 °F (at 3:30 PM)
Minimum temperature yesterday: 77 °F (at 7:30 AM)
Average temperature yesterday: 81 °F

Past Weeks' High & Low Weather Summary

 TemperatureHumidityPressure
High97 °F (Jul 21, 6:30 PM)100% (Jul 19, 8:30 PM)29.80 "Hg (Jul 19, 8:30 PM)
Low75 °F (Jul 18, 6:00 PM)15% (Jul 22, 1:00 PM)29.56 "Hg (Jul 9, 3:00 PM)
Average82 °F80%29.69 "Hg
* Reported Jul 9 1:00 AM — Jul 24 1:00 AM, Battambang, Weather by CustomWeather, © 2014

Note: Actual official high and low records may vary slightly from our data, if they occured in-between our weather recording intervals... More about our weather records

Advertising

Battambang weather history for previous 24 hours

 ConditionsComfort  
Time TempWeatherWind HumidityBarometerVisibility
1:00 AM
Jul 24
79 °FPartly cloudy.2 mph89%29.68 "Hg6 mi
12:30 AM79 °FPartly cloudy.3 mph89%29.68 "Hg6 mi
12:00 AM79 °FPartly cloudy.3 mph89%29.71 "Hg6 mi
11:30 PM
Jul 23
79 °FPartly cloudy.6 mph89%29.71 "Hg6 mi
11:00 PM81 °FPartly cloudy.3 mph84%29.71 "Hg6 mi
10:30 PM81 °FPartly cloudy.3 mph84%29.71 "Hg6 mi
10:00 PM79 °FPartly cloudy.3 mph94%29.71 "Hg6 mi
9:30 PM79 °FPartly cloudy.2 mph94%29.71 "Hg6 mi
9:00 PM79 °FLight rain. Partly cloudy.2 mph94%29.68 "Hg4 mi
8:30 PM79 °FLight rain. Partly cloudy.2 mph94%29.68 "Hg4 mi
8:00 PM79 °FLight rain. Partly cloudy.2 mph89%29.68 "Hg4 mi
7:30 PM79 °FLight rain. Partly cloudy.3 mph89%29.65 "Hg4 mi
7:00 PM79 °FLight rain. Partly cloudy.9 mph89%29.65 "Hg4 mi
6:30 PM79 °FLight rain. Broken clouds.13 mph84%29.65 "Hg4 mi
6:00 PM82 °FBroken clouds.3 mph79%29.59 "Hg6 mi
5:30 PM82 °FBroken clouds.3 mph79%29.59 "Hg6 mi
5:00 PM81 °FBroken clouds.6 mph84%29.59 "Hg6 mi
4:00 PM81 °FBroken clouds.14 mph79%29.62 "Hg5 mi
3:30 PM86 °FPartly sunny.5 mph70%29.62 "Hg5 mi
2:30 PM84 °FHeavy rain. Mostly cloudy.5 mph79%29.62 "Hg2 mi
1:00 PM84 °FPartly sunny.7 mph79%29.68 "Hg6 mi
12:30 PM81 °FPartly sunny.9 mph84%29.68 "Hg6 mi
11:30 AM82 °FPartly sunny.8 mph84%29.71 "Hg6 mi
11:00 AM82 °FPartly sunny.7 mph84%29.71 "Hg6 mi
10:30 AM82 °FPartly sunny.7 mph84%29.71 "Hg5 mi
10:00 AM81 °FPartly sunny.5 mph89%29.74 "Hg5 mi
9:30 AM81 °FBroken clouds.3 mph84%29.74 "Hg5 mi
9:00 AM79 °FMostly cloudy.2 mph94%29.71 "Hg5 mi
8:30 AM79 °FLight rain. Mostly cloudy.3 mph89%29.71 "Hg4 mi
7:30 AM77 °FLight rain. Mostly cloudy.1 mph94%29.71 "Hg4 mi
Weather by CustomWeather, © 2014

See weather overviewHow to use our weather pages